GPS BIIRM-2 (PRN 31)

Last updated on Fri Sep 19 2025 00:03:17 GMT+0000 (Coordinated Universal Time)

1 29486U 06042A 25257.06466226 -.00000016 00000+0 00000+0 0 9990 2 29486 54.6858 162.2996 0106165 49.1756 157.3698 2.00557563138850
UTC large
Height (km)
Speed (km/s)
/
Latitude / Longitude
Inclination (degrees)
Orbital Period (minutes)
Azimuth
Elevation
Range (km)
Doppler Factor

Next 0 passes for location: London (51.5072 / 0.1276)

Sorry there are no passes over London.